Regional Weather Roundup
Issued by NWS

Home | Current Version | Previous Version | Graphics & Text | Print | Product List | Glossary On
Versions: 1 2 3 4 5 6 7 8 9 10 11 12 13 14 15 16 17 18 19 20 21 22 23 24 25 26 27 28 29 30 31 32 33 34 35 36 37 38 39 40 41 42 43 44 45 46 47 48 49 50
000
ASUS43 KLMK 220302
RWRKY
KENTUCKY REGIONAL WEATHER ROUNDUP
NATIONAL WEATHER SERVICE LOUISVILLE KY
1100 PM EDT MON JUL 21 2014

NOTE "FAIR" INDICATES FEW OR NO CLOUDS BELOW 12,000 FEET
WITH NO SIGNIFICANT WEATHER AND/OR OBSTRUCTIONS TO VISIBILITY.

KYZ001>023-026-027-061>063-070>075-220400-
WESTERN AND SOUTH CENTRAL KENTUCKY

CITY           SKY/WX    TMP DP  RH WIND       PRES   REMARKS
PADUCAH        CLEAR     71  66  84 CALM      30.06R
HENDERSON      CLEAR     72  66  83 CALM      30.07R
OWENSBORO      CLEAR     79  67  66 NE5       30.07R
HOPKINSVILLE   CLEAR     76  68  76 N3        30.06R
BOWLING GREEN  CLEAR     76  66  71 NE5       30.07R
GLASGOW        CLEAR     74  68  79 CALM      30.08S
$$

KYZ024-025-028>034-038-045-046-053-220400-
NORTH CENTRAL KENTUCKY

CITY           SKY/WX    TMP DP  RH WIND       PRES   REMARKS
LOUISVILLE/SDF CLEAR     80  66  62 NE5       30.08R
LOUISVILLE/LOU CLEAR     80  66  62 NE3       30.09R
FORT KNOX      CLEAR     74  68  81 N6        30.08R
$$

KYZ035>037-039>044-047>052-055>060-089>105-220400-
NORTHEAST KENTUCKY

CITY           SKY/WX    TMP DP  RH WIND       PRES   REMARKS
LEXINGTON      PTCLDY    77  67  71 NE6       30.11R
COVINGTON      CLEAR     76  65  68 CALM      30.11R
FRANKFORT      CLEAR     74  68  81 CALM      30.09R
$$

KYZ054-064>069-076>088-106>120-220400-
SOUTHEAST KENTUCKY

CITY           SKY/WX    TMP DP  RH WIND       PRES   REMARKS
JACKSON        PTCLDY    76  68  76 E3        30.13R
LONDON         MOCLDY    78  70  76 CALM      30.11S
SOMERSET       CLEAR     75  72  88 CALM      30.10S
MIDDLESBORO    CLOUDY    74  71  88 CALM      30.13R
MONTICELLO     PTCLDY    71  70  97 CALM      30.11R
$$




USA.gov is the U.S. government's official web portal to all federal, state and local government web resources and services.